Orbital Elements at Epoch 2459200.5 (2020-Dec-17.0) TDB
Reference: JPL 16 (heliocentric ecliptic J2000)
Element | Value | Uncertainty (1-sigma) | Units |
e | .1983031960207587 | 8.9929e-08 | |
a | 2.539488654195545 | 1.1066e-08 | au |
q | 2.035899937810114 | 2.341e-07 | au |
i | 2.773066734918001 | 4.4738e-06 | deg |
node | 207.0489226829834 | 0.00013144 | deg |
peri | 114.1402651006104 | 0.00013209 | deg |
M | 27.6580308290438 | 9.9399e-06 | deg |
tp | 2459086.937067734398 (2020-Aug-25.43706773) | 4.1013e-05 | TDB |
period | 1478.147734678413 4.05 | 9.6616e-06 2.645e-08 | d yr |
n | .2435480510872764 | 1.5919e-09 | deg/d |
Q | 3.043077370580977 | 1.326e-08 | au |
|
| | Orbit Determination Parameters
Additional Information
|